Time,TemperatureF,DewpointF,PressureIn,WindDirection,WindDirectionDegrees,WindSpeedMPH,WindSpeedGustMPH,Humidity,HourlyPrecipIn,Conditions,Clouds,dailyrainin,SoftwareType,DateUTC
2013-04-22 00:03:00,72.0,69.0,30.05,NNE,15,3.0,8.0,90,0.01,,,0.02,,2013-04-22 04:03:00,
2013-04-22 00:12:00,72.0,69.0,30.05,NNE,15,3.0,8.0,90,0.01,,,0.02,,2013-04-22 04:12:00,
2013-04-22 00:23:00,72.0,69.0,30.05,NE,42,1.0,5.0,91,0.01,,,0.02,,2013-04-22 04:23:00,
2013-04-22 00:33:00,72.0,69.0,30.05,East,94,0.0,2.0,91,0.02,,,0.03,,2013-04-22 04:33:00,
2013-04-22 00:43:00,72.0,69.0,30.05,East,94,0.0,2.0,91,0.02,,,0.03,,2013-04-22 04:43:00,
2013-04-22 00:52:00,72.0,70.0,30.06,SE,132,1.0,4.0,92,0.01,,,0.03,,2013-04-22 04:52:00,
2013-04-22 01:03:00,72.0,70.0,30.06,SE,143,1.0,3.0,92,0.06,,,0.08,,2013-04-22 05:03:00,
2013-04-22 01:12:00,72.0,70.0,30.05,South,184,3.0,5.0,93,0.10,,,0.13,,2013-04-22 05:12:00,
2013-04-22 01:22:00,72.0,70.0,30.05,South,184,3.0,5.0,93,0.10,,,0.13,,2013-04-22 05:22:00,
2013-04-22 01:32:00,71.0,69.0,30.06,SSE,157,4.0,16.0,92,0.13,,,0.16,,2013-04-22 05:32:00,
2013-04-22 01:42:00,71.0,69.0,30.06,SSE,157,4.0,16.0,92,0.13,,,0.16,,2013-04-22 05:42:00,
2013-04-22 01:52:00,70.0,68.0,30.05,SSE,165,3.0,8.0,92,0.16,,,0.19,,2013-04-22 05:52:00,
2013-04-22 02:02:00,70.0,68.0,30.05,SE,124,4.0,10.0,92,0.16,,,0.23,,2013-04-22 06:02:00,
2013-04-22 02:12:00,70.0,68.0,30.05,SE,124,4.0,10.0,92,0.16,,,0.23,,2013-04-22 06:12:00,
2013-04-22 02:21:00,69.0,67.0,30.03,SSE,161,4.0,10.0,93,0.13,,,0.25,,2013-04-22 06:21:00,
2013-04-22 02:32:00,69.0,67.0,30.01,SE,131,2.0,10.0,93,0.15,,,0.30,,2013-04-22 06:32:00,
2013-04-22 02:42:00,69.0,67.0,30.01,SE,131,2.0,10.0,93,0.15,,,0.30,,2013-04-22 06:42:00,
2013-04-22 02:52:00,69.0,67.0,30.00,SSE,163,1.0,7.0,93,0.12,,,0.31,,2013-04-22 06:52:00,
2013-04-22 03:01:00,69.0,67.0,29.99,SSE,159,4.0,8.0,93,0.08,,,0.31,,2013-04-22 07:01:00,
2013-04-22 03:12:00,69.0,67.0,29.99,SSE,159,4.0,8.0,93,0.08,,,0.31,,2013-04-22 07:12:00,
2013-04-22 03:21:00,69.0,67.0,29.99,ESE,104,2.0,6.0,93,0.06,,,0.31,,2013-04-22 07:21:00,
2013-04-22 03:32:00,69.0,67.0,29.98,SSE,147,2.0,5.0,93,0.01,,,0.31,,2013-04-22 07:32:00,
2013-04-22 03:42:00,69.0,67.0,29.98,SSE,147,2.0,5.0,93,0.01,,,0.31,,2013-04-22 07:42:00,
2013-04-22 03:52:00,69.0,67.0,29.98,NE,37,1.0,4.0,93,0.00,,,0.31,,2013-04-22 07:52:00,
2013-04-22 04:02:00,69.0,67.0,29.98,ENE,57,2.0,6.0,94,0.00,,,0.31,,2013-04-22 08:02:00,
2013-04-22 04:11:00,69.0,67.0,29.98,ENE,57,2.0,6.0,94,0.00,,,0.31,,2013-04-22 08:11:00,
2013-04-22 04:22:00,69.0,67.0,29.98,WNW,286,2.0,6.0,94,0.00,,,0.31,,2013-04-22 08:22:00,
2013-04-22 04:32:00,69.0,67.0,29.97,NE,41,2.0,6.0,94,0.00,,,0.31,,2013-04-22 08:32:00,
2013-04-22 04:42:00,69.0,67.0,29.97,NE,41,2.0,6.0,94,0.00,,,0.31,,2013-04-22 08:42:00,
2013-04-22 04:53:00,69.0,67.0,29.96,East,93,0.0,4.0,93,0.00,,,0.31,,2013-04-22 08:53:00,
2013-04-22 05:01:00,69.0,67.0,29.97,East,93,0.0,3.0,93,0.00,,,0.31,,2013-04-22 09:01:00,
2013-04-22 05:11:00,69.0,67.0,29.97,East,93,0.0,3.0,93,0.00,,,0.31,,2013-04-22 09:11:00,
2013-04-22 05:21:00,69.0,67.0,29.97,NNE,27,2.0,4.0,93,0.00,,,0.31,,2013-04-22 09:21:00,
2013-04-22 05:33:00,69.0,67.0,29.96,NNE,22,2.0,6.0,93,0.00,,,0.31,,2013-04-22 09:33:00,
2013-04-22 05:42:00,69.0,67.0,29.96,NNE,22,2.0,6.0,93,0.00,,,0.31,,2013-04-22 09:42:00,
2013-04-22 05:52:00,69.0,67.0,29.95,NE,37,4.0,6.0,92,0.00,,,0.31,,2013-04-22 09:52:00,
2013-04-22 06:03:00,69.0,67.0,29.96,NE,38,2.0,5.0,92,0.00,,,0.31,,2013-04-22 10:03:00,
2013-04-22 06:12:00,69.0,67.0,29.96,NE,38,2.0,5.0,92,0.00,,,0.31,,2013-04-22 10:12:00,
2013-04-22 06:22:00,69.0,67.0,29.96,NNE,22,2.0,5.0,92,0.00,,,0.31,,2013-04-22 10:22:00,
2013-04-22 06:32:00,69.0,67.0,29.96,NNE,26,3.0,5.0,93,0.00,,,0.31,,2013-04-22 10:32:00,
2013-04-22 06:42:00,69.0,67.0,29.96,NNE,26,3.0,5.0,93,0.00,,,0.31,,2013-04-22 10:42:00,
2013-04-22 06:53:00,69.0,67.0,29.97,ENE,58,1.0,4.0,93,0.00,,,0.31,,2013-04-22 10:53:00,
2013-04-22 07:02:00,69.0,67.0,29.98,NNE,23,1.0,3.0,93,0.00,,,0.31,,2013-04-22 11:02:00,
2013-04-22 07:12:00,69.0,67.0,29.98,NE,46,0.0,4.0,93,0.00,,,0.31,,2013-04-22 11:12:00,
2013-04-22 07:22:00,69.0,67.0,29.98,NE,46,0.0,4.0,93,0.00,,,0.31,,2013-04-22 11:22:00,
2013-04-22 07:32:00,69.0,67.0,29.98,NNE,26,0.0,3.0,93,0.00,,,0.31,,2013-04-22 11:32:00,
2013-04-22 07:42:00,69.0,67.0,29.98,NNE,26,0.0,3.0,93,0.00,,,0.31,,2013-04-22 11:42:00,
2013-04-22 07:52:00,69.0,67.0,29.99,NNE,26,0.0,2.0,94,0.00,,,0.31,,2013-04-22 11:52:00,
2013-04-22 08:02:00,69.0,67.0,30.00,NNE,26,0.0,0.0,94,0.00,,,0.31,,2013-04-22 12:02:00,
2013-04-22 08:12:00,70.0,68.0,30.01,NE,48,0.0,1.0,94,0.00,,,0.31,,2013-04-22 12:12:00,
2013-04-22 08:21:00,70.0,68.0,30.01,NE,48,0.0,1.0,94,0.00,,,0.31,,2013-04-22 12:21:00,
2013-04-22 08:32:00,70.0,68.0,30.01,East,82,3.0,5.0,94,0.00,,,0.31,,2013-04-22 12:32:00,
2013-04-22 08:42:00,70.0,68.0,30.01,East,82,3.0,5.0,94,0.00,,,0.31,,2013-04-22 12:42:00,
2013-04-22 08:52:00,70.0,68.0,30.01,NE,38,3.0,6.0,93,0.00,,,0.31,,2013-04-22 12:52:00,
2013-04-22 09:01:00,70.0,68.0,30.01,North,360,4.0,7.0,93,0.00,,,0.31,,2013-04-22 13:01:00,
2013-04-22 09:11:00,70.0,68.0,30.01,North,360,4.0,7.0,93,0.00,,,0.31,,2013-04-22 13:11:00,
2013-04-22 09:22:00,70.0,68.0,30.02,NE,40,3.0,6.0,92,0.00,,,0.31,,2013-04-22 13:22:00,
2013-04-22 09:32:00,70.0,68.0,30.02,NE,52,4.0,9.0,92,0.00,,,0.31,,2013-04-22 13:32:00,
2013-04-22 09:42:00,70.0,68.0,30.02,NE,52,4.0,9.0,92,0.00,,,0.31,,2013-04-22 13:42:00,
2013-04-22 09:53:00,70.0,68.0,30.02,NNE,22,5.0,9.0,92,0.00,,,0.31,,2013-04-22 13:53:00,
2013-04-22 10:02:00,71.0,69.0,30.03,NE,49,5.0,8.0,92,0.00,,,0.31,,2013-04-22 14:02:00,
2013-04-22 10:11:00,71.0,68.0,30.03,NE,53,5.0,9.0,91,0.00,,,0.31,,2013-04-22 14:11:00,
2013-04-22 10:21:00,71.0,68.0,30.03,NE,53,5.0,9.0,91,0.00,,,0.31,,2013-04-22 14:21:00,
2013-04-22 10:33:00,71.0,68.0,30.04,NE,40,7.0,10.0,90,0.00,,,0.31,,2013-04-22 14:33:00,
2013-04-22 10:42:00,71.0,68.0,30.04,NE,40,7.0,10.0,90,0.00,,,0.31,,2013-04-22 14:42:00,
2013-04-22 10:52:00,72.0,69.0,30.04,NNE,14,4.0,9.0,90,0.00,,,0.31,,2013-04-22 14:52:00,
2013-04-22 11:02:00,72.0,69.0,30.04,North,355,3.0,10.0,90,0.00,,,0.31,,2013-04-22 15:02:00,
2013-04-22 11:12:00,72.0,69.0,30.04,North,355,3.0,10.0,90,0.00,,,0.31,,2013-04-22 15:12:00,
2013-04-22 11:22:00,73.0,69.0,30.04,NE,47,5.0,8.0,88,0.00,,,0.31,,2013-04-22 15:22:00,
2013-04-22 11:33:00,74.0,70.0,30.05,NE,40,4.0,10.0,86,0.00,,,0.31,,2013-04-22 15:33:00,
2013-04-22 11:43:00,74.0,70.0,30.05,NE,40,4.0,10.0,86,0.00,,,0.31,,2013-04-22 15:43:00,
2013-04-22 11:53:00,76.0,71.0,30.05,NNE,32,3.0,7.0,84,0.00,,,0.31,,2013-04-22 15:53:00,
2013-04-22 12:03:00,75.0,69.0,30.05,NNE,24,4.0,9.0,82,0.00,,,0.31,,2013-04-22 16:03:00,
2013-04-22 12:12:00,75.0,69.0,30.05,NNE,24,4.0,9.0,82,0.00,,,0.31,,2013-04-22 16:12:00,
2013-04-22 12:23:00,76.0,70.0,30.05,ENE,64,1.0,9.0,83,0.00,,,0.31,,2013-04-22 16:23:00,
2013-04-22 12:33:00,77.0,71.0,30.05,NE,37,4.0,8.0,81,0.00,,,0.31,,2013-04-22 16:33:00,
2013-04-22 12:42:00,77.0,71.0,30.05,NE,37,4.0,8.0,81,0.00,,,0.31,,2013-04-22 16:42:00,
2013-04-22 12:52:00,77.0,70.0,30.04,NE,34,3.0,9.0,80,0.00,,,0.31,,2013-04-22 16:52:00,
2013-04-22 13:02:00,78.0,71.0,30.03,NNE,16,4.0,9.0,78,0.00,,,0.31,,2013-04-22 17:02:00,
2013-04-22 13:12:00,78.0,71.0,30.03,NNE,16,4.0,9.0,78,0.00,,,0.31,,2013-04-22 17:12:00,
2013-04-22 13:22:00,80.0,71.0,30.03,NNE,32,4.0,7.0,73,0.00,,,0.31,,2013-04-22 17:22:00,
2013-04-22 13:32:00,79.0,70.0,30.02,NE,43,3.0,7.0,74,0.00,,,0.31,,2013-04-22 17:32:00,
2013-04-22 13:42:00,79.0,70.0,30.02,NE,43,3.0,7.0,74,0.00,,,0.31,,2013-04-22 17:42:00,
2013-04-22 13:52:00,79.0,70.0,30.01,NNE,17,3.0,7.0,74,0.00,,,0.31,,2013-04-22 17:52:00,
2013-04-22 14:01:00,79.0,70.0,30.01,NNE,26,3.0,6.0,74,0.00,,,0.31,,2013-04-22 18:01:00,
2013-04-22 14:12:00,79.0,70.0,30.01,NNE,26,3.0,6.0,74,0.00,,,0.31,,2013-04-22 18:12:00,
2013-04-22 14:22:00,79.0,70.0,30.01,North,9,4.0,8.0,75,0.00,,,0.31,,2013-04-22 18:22:00,
2013-04-22 14:32:00,81.0,70.0,30.00,NNW,338,3.0,8.0,69,0.00,,,0.31,,2013-04-22 18:32:00,
2013-04-22 14:42:00,81.0,70.0,30.00,NNW,338,3.0,8.0,69,0.00,,,0.31,,2013-04-22 18:42:00,
2013-04-22 14:52:00,80.0,70.0,30.00,NNE,26,2.0,7.0,72,0.00,,,0.31,,2013-04-22 18:52:00,
2013-04-22 15:01:00,81.0,71.0,29.99,NE,53,3.0,6.0,72,0.00,,,0.31,,2013-04-22 19:01:00,
2013-04-22 15:12:00,81.0,71.0,29.99,NE,53,3.0,6.0,72,0.00,,,0.31,,2013-04-22 19:12:00,
2013-04-22 15:22:00,81.0,71.0,29.98,NE,40,2.0,7.0,71,0.00,,,0.31,,2013-04-22 19:22:00,
2013-04-22 15:32:00,81.0,72.0,29.98,East,98,1.0,7.0,73,0.00,,,0.31,,2013-04-22 19:32:00,
2013-04-22 15:42:00,81.0,72.0,29.98,East,98,1.0,7.0,73,0.00,,,0.31,,2013-04-22 19:42:00,
2013-04-22 15:53:00,82.0,70.0,29.96,NNE,27,4.0,7.0,68,0.00,,,0.31,,2013-04-22 19:53:00,
2013-04-22 16:02:00,83.0,71.0,29.96,NNW,338,1.0,5.0,68,0.00,,,0.31,,2013-04-22 20:02:00,
2013-04-22 16:11:00,83.0,71.0,29.96,NNW,338,1.0,5.0,68,0.00,,,0.31,,2013-04-22 20:11:00,
2013-04-22 16:22:00,81.0,72.0,29.96,NNE,26,0.0,9.0,75,0.05,,,0.36,,2013-04-22 20:22:00,
2013-04-22 16:32:00,78.0,71.0,29.95,East,87,0.0,0.0,80,0.09,,,0.40,,2013-04-22 20:32:00,
2013-04-22 16:42:00,78.0,71.0,29.95,East,87,0.0,0.0,80,0.09,,,0.40,,2013-04-22 20:42:00,
2013-04-22 16:52:00,79.0,74.0,29.95,NE,51,0.0,2.0,86,0.09,,,0.40,,2013-04-22 20:52:00,
2013-04-22 17:02:00,79.0,72.0,29.95,NNE,26,2.0,6.0,79,0.09,,,0.40,,2013-04-22 21:02:00,
2013-04-22 17:12:00,76.0,70.0,29.95,NE,36,4.0,11.0,81,0.04,,,0.40,,2013-04-22 21:12:00,
2013-04-22 17:21:00,76.0,70.0,29.95,NE,36,4.0,11.0,81,0.04,,,0.40,,2013-04-22 21:21:00,
2013-04-22 17:32:00,77.0,70.0,29.95,NNE,29,4.0,7.0,80,0.00,,,0.40,,2013-04-22 21:32:00,
2013-04-22 17:43:00,77.0,70.0,29.95,NNE,29,4.0,7.0,80,0.00,,,0.40,,2013-04-22 21:43:00,
2013-04-22 17:53:00,79.0,70.0,29.95,NNE,29,4.0,9.0,75,0.00,,,0.40,,2013-04-22 21:53:00,
2013-04-22 18:03:00,79.0,70.0,29.95,ESE,104,4.0,8.0,74,0.00,,,0.40,,2013-04-22 22:03:00,
2013-04-22 18:12:00,79.0,70.0,29.95,ESE,104,4.0,8.0,74,0.00,,,0.40,,2013-04-22 22:12:00,
2013-04-22 18:22:00,78.0,70.0,29.95,NE,37,3.0,6.0,76,0.00,,,0.40,,2013-04-22 22:22:00,
2013-04-22 18:33:00,78.0,70.0,29.95,NNE,23,3.0,7.0,76,0.00,,,0.40,,2013-04-22 22:33:00,
2013-04-22 18:42:00,78.0,70.0,29.95,NNE,23,3.0,7.0,76,0.00,,,0.40,,2013-04-22 22:42:00,
2013-04-22 18:52:00,80.0,70.0,29.95,NNE,32,2.0,4.0,72,0.00,,,0.40,,2013-04-22 22:52:00,
2013-04-22 19:02:00,80.0,69.0,29.95,NE,42,0.0,4.0,70,0.00,,,0.40,,2013-04-22 23:02:00,
2013-04-22 19:11:00,79.0,70.0,29.96,NNE,15,8.0,12.0,74,0.00,,,0.40,,2013-04-22 23:11:00,
2013-04-22 19:21:00,79.0,70.0,29.96,NNE,15,8.0,12.0,74,0.00,,,0.40,,2013-04-22 23:21:00,
2013-04-22 19:33:00,74.0,68.0,29.97,NNE,22,6.0,12.0,82,0.00,,,0.40,,2013-04-22 23:33:00,
2013-04-22 19:42:00,74.0,68.0,29.97,NNE,22,6.0,12.0,82,0.00,,,0.40,,2013-04-22 23:42:00,
2013-04-22 19:52:00,73.0,68.0,29.97,North,360,4.0,11.0,85,0.01,,,0.41,,2013-04-22 23:52:00,
2013-04-22 20:02:00,73.0,69.0,29.98,NNE,30,5.0,7.0,87,0.01,,,0.41,,2013-04-23 00:02:00,
2013-04-22 20:12:00,73.0,69.0,29.98,NNE,30,5.0,7.0,87,0.01,,,0.41,,2013-04-23 00:12:00,
2013-04-22 20:21:00,72.0,68.0,29.98,NE,39,4.0,10.0,86,0.01,,,0.41,,2013-04-23 00:21:00,
2013-04-22 20:32:00,72.0,67.0,29.98,NNE,28,4.0,10.0,85,0.01,,,0.41,,2013-04-23 00:32:00,
2013-04-22 20:42:00,72.0,67.0,29.98,NNE,28,4.0,10.0,85,0.01,,,0.41,,2013-04-23 00:42:00,
2013-04-22 20:52:00,72.0,68.0,29.99,NNE,32,3.0,12.0,86,0.00,,,0.41,,2013-04-23 00:52:00,
2013-04-22 21:01:00,72.0,68.0,30.01,NE,46,5.0,10.0,86,0.00,,,0.41,,2013-04-23 01:01:00,
2013-04-22 21:11:00,72.0,68.0,30.01,NE,46,5.0,10.0,86,0.00,,,0.41,,2013-04-23 01:11:00,
2013-04-22 21:21:00,72.0,68.0,30.01,NE,45,5.0,8.0,86,0.00,,,0.41,,2013-04-23 01:21:00,
2013-04-22 21:32:00,71.0,67.0,30.01,NE,38,5.0,10.0,86,0.00,,,0.41,,2013-04-23 01:32:00,
2013-04-22 21:42:00,71.0,67.0,30.01,NE,38,5.0,10.0,86,0.00,,,0.41,,2013-04-23 01:42:00,
2013-04-22 21:52:00,71.0,67.0,30.02,NE,55,4.0,8.0,87,0.00,,,0.41,,2013-04-23 01:52:00,
2013-04-22 22:02:00,71.0,67.0,30.03,NE,36,4.0,8.0,87,0.00,,,0.41,,2013-04-23 02:02:00,
2013-04-22 22:12:00,71.0,67.0,30.03,NE,36,4.0,8.0,87,0.00,,,0.41,,2013-04-23 02:12:00,
2013-04-22 22:21:00,71.0,67.0,30.03,NE,44,3.0,9.0,87,0.00,,,0.41,,2013-04-23 02:21:00,
2013-04-22 22:32:00,70.0,66.0,30.04,NE,46,7.0,11.0,87,0.00,,,0.41,,2013-04-23 02:32:00,
2013-04-22 22:42:00,70.0,66.0,30.04,NE,46,7.0,11.0,87,0.00,,,0.41,,2013-04-23 02:42:00,
2013-04-22 22:52:00,70.0,66.0,30.04,NE,34,5.0,10.0,87,0.00,,,0.41,,2013-04-23 02:52:00,
2013-04-22 23:01:00,70.0,66.0,30.04,NE,40,4.0,12.0,87,0.00,,,0.41,,2013-04-23 03:01:00,
2013-04-22 23:11:00,70.0,66.0,30.04,NE,40,4.0,12.0,87,0.00,,,0.41,,2013-04-23 03:11:00,
2013-04-22 23:21:00,70.0,66.0,30.04,NE,53,6.0,10.0,87,0.00,,,0.41,,2013-04-23 03:21:00,
2013-04-22 23:33:00,70.0,66.0,30.04,NE,54,6.0,13.0,87,0.00,,,0.41,,2013-04-23 03:33:00,
2013-04-22 23:43:00,70.0,66.0,30.04,NE,54,6.0,13.0,87,0.00,,,0.41,,2013-04-23 03:43:00,
2013-04-22 23:53:00,69.0,65.0,30.04,ENE,59,4.0,10.0,87,0.00,,,0.41,,2013-04-23 03:53:00,